Wind_Speed
22 22 21 21 21 21 21 21 20 20 23 26 27 27 27 28 31 34 37 38 38 38 35 33 31 29 27 26 25 25 25 24 25 24 25 25 24 24 24 25 25 25 25 25
19 19 19 20 20 21 21 20 19 18 21 24 25 26 26 26 29 31 34 36 38 38 37 36 35 33 31 29 29 28 26 25 26 26 26 28 27 27 26 25 26 26 27 27
16 17 18 18 19 20 20 19 17 17 20 22 23 23 23 24 27 29 31 33 35 36 37 37 36 35 33 31 30 30 28 26 26 27 29 30 28 27 27 26 27 27 29 30
14 15 17 17 18 19 18 18 18 18 20 20 21 21 20 21 23 26 28 31 33 35 36 37 37 36 34 33 31 31 30 29 29 28 28 29 29 27 26 27 28 29 30 31
13 15 16 17 17 19 18 18 19 19 19 21 20 21 20 20 20 22 25 27 29 31 34 36 36 36 35 34 32 31 30 31 31 29 27 26 26 26 26 27 27 27 29 29
14 15 17 17 17 18 18 19 20 20 18 19 19 20 20 19 19 21 22 24 27 29 31 33 34 35 34 34 33 32 31 31 31 29 27 25 25 23 24 25 25 25 26 27
14 14 16 17 17 17 18 18 19 19 19 19 19 19 18 18 18 18 20 22 25 27 28 29 31 32 32 33 33 32 31 31 30 28 26 25 25 23 21 21 21 23 24 25
14 12 14 15 15 15 15 17 17 17 17 17 18 19 16 16 16 16 17 21 23 24 26 27 29 30 30 30 31 31 31 29 28 27 26 25 25 23 23 22 22 21 21 21
14 12 12 13 13 13 14 15 16 17 17 17 18 18 17 15 15 16 17 19 20 21 24 26 27 28 28 29 28 28 28 28 28 27 26 25 24 24 23 23 22 21 20 20
13 12 11 12 12 11 13 14 15 16 16 16 17 16 16 17 16 16 16 18 19 19 20 22 23 24 25 26 26 26 27 28 28 28 26 25 24 23 23 22 23 22 21 21
13 12 11 11 11 10 11 13 14 16 16 16 16 15 15 15 15 15 15 15 17 20 21 22 23 24 25 25 26 27 28 27 26 25 25 24 24 24 23 22 22 22 22 23
12 12 11 11 10 10 11 13 13 14 15 15 15 14 14 13 13 13 13 14 17 18 20 20 21 22 24 24 25 25 26 25 24 24 24 24 24 24 23 23 23 23 24 25
11 11 10 9 9 10 11 11 13 14 15 16 15 13 12 13 13 13 14 14 15 17 18 20 21 23 23 24 24 24 24 24 24 24 25 25 25 25 24 24 25 26 26 28
10 10 9 8 8 9 10 11 12 13 15 15 15 14 14 15 15 14 13 13 13 14 17 19 20 22 23 23 23 23 24 24 24 24 25 25 26 26 25 26 26 27 28 29
8 8 8 8 8 9 10 10 11 12 14 14 14 15 15 16 16 14 13 12 11 12 14 16 17 18 20 20 21 22 23 23 23 24 25 25 26 26 26 27 28 29 30 30
9 8 7 7 7 8 9 10 11 11 12 13 14 15 15 15 15 14 12 12 11 12 13 13 15 16 18 20 20 21 22 23 24 25 25 25 26 27 27 28 28 29 29 30
7 6 5 5 6 6 7 8 9 10 11 12 13 14 14 14 14 12 11 11 11 12 12 14 15 16 17 18 20 21 22 23 24 25 25 26 26 27 27 27 27 28 28 29
5 5 5 5 5 6 6 7 8 10 10 10 11 12 12 12 12 10 10 10 12 12 13 14 15 16 17 18 20 21 22 22 23 23 23 24 24 24 25 25 26 26 27 27
4 3 3 4 4 6 6 8 9 9 9 9 8 9 9 10 10 10 10 12 13 13 13 14 15 16 17 18 19 20 20 20 20 21 21 21 22 22 23 23 24 24 24 25
2 2 3 3 5 6 6 7 8 7 7 8 7 8 8 8 8 8 9 10 11 12 12 13 13 15 16 17 18 18 18 19 19 19 20 20 21 21 22 22 23 23 22 22
1 1 2 4 5 6 7 7 8 7 8 7 7 7 7 7 6 7 8 8 9 10 11 12 12 13 14 15 16 17 17 18 18 19 19 19 20 20 21 21 21 21 20 20
1 2 3 4 5 6 7 8 8 8 9 8 8 7 6 6 6 6 7 7 8 9 10 11 11 12 13 14 14 15 15 16 17 17 18 18 18 19 19 19 19 19 19 18
3 3 4 6 6 7 8 9 9 9 9 9 8 7 7 5 5 6 6 6 7 8 9 10 10 11 11 12 13 14 14 15 15 16 16 17 17 18 18 18 18 18 17 17
4 5 5 6 7 8 9 10 10 10 10 10 9 8 7 6 6 6 6 5 6 7 8 9 10 10 11 12 12 13 13 14 14 15 15 16 17 17 17 17 17 16 16 15
6 6 7 8 9 10 10 11 11 12 12 11 10 9 8 7 6 7 7 6 6 6 7 8 9 10 10 11 12 12 13 13 14 15 15 16 16 15 15 15 15 14 14 13
6 7 8 9 10 11 11 12 13 13 13 12 11 10 9 9 8 8 7 7 6 6 7 7 8 8 9 9 10 12 13 13 14 14 14 13 13 13 13 12 12 11 11 11
Wind_Direction
294 291 288 284 280 275 270 267 262 255 251 249 248 248 245 242 240 237 235 234 232 231 229 231 232 234 238 243 247 251 250 247 244 242 243 241 242 242 242 243 243 242 242 243
295 290 287 284 281 277 272 269 262 251 247 248 248 249 248 244 240 238 236 234 232 231 228 229 232 235 241 245 249 252 254 253 249 247 245 241 243 244 243 245 246 245 244 243
297 293 291 287 282 277 273 267 259 244 240 246 248 250 248 246 241 239 238 235 231 230 229 229 231 235 240 245 249 254 257 255 252 250 248 244 244 244 245 247 249 248 246 246
299 294 291 287 280 276 271 262 252 243 241 244 250 250 245 242 240 240 238 234 230 228 227 228 231 234 238 242 247 253 256 255 255 254 250 247 247 246 246 249 249 249 248 248
300 294 292 287 276 272 268 259 251 245 244 244 247 251 247 241 238 239 237 233 230 227 227 228 231 234 237 241 244 248 252 257 259 256 254 253 247 247 248 250 250 251 250 249
301 295 293 286 275 269 266 259 253 248 247 248 247 251 250 243 240 239 237 232 229 228 226 228 231 234 237 241 244 245 248 253 257 257 260 257 257 257 256 256 254 253 253 253
300 300 294 288 276 268 262 258 254 251 250 251 248 250 250 247 242 241 237 233 230 227 227 228 230 232 235 238 241 246 250 255 260 261 263 261 266 265 266 268 264 259 257 256
304 300 294 289 278 268 261 256 253 253 255 254 253 250 254 254 248 247 244 239 235 232 229 229 230 231 233 235 240 245 251 255 261 264 265 267 270 270 271 271 272 271 265 262
303 302 294 291 279 268 259 251 250 253 256 257 258 257 259 263 255 254 250 243 239 233 230 229 232 234 235 237 241 247 250 256 259 261 263 266 268 271 273 272 271 271 269 269
301 300 295 292 279 264 254 246 247 251 255 259 263 262 264 266 266 263 258 247 240 236 235 235 235 236 237 239 243 247 250 255 257 259 261 264 266 269 269 269 268 268 269 274
300 296 291 286 278 266 252 247 246 249 255 260 267 271 270 274 279 272 259 254 247 245 243 239 238 238 240 243 247 250 252 254 256 257 259 263 267 268 268 269 269 271 274 278
298 293 288 279 270 261 252 248 248 249 254 263 272 273 273 281 289 279 271 267 253 249 247 242 241 241 242 244 248 249 250 251 254 257 260 264 266 266 267 269 272 275 277 278
294 289 290 281 268 262 255 253 253 256 258 263 271 279 276 283 291 288 280 272 259 252 250 245 244 243 243 246 249 250 253 255 256 258 261 264 267 268 270 271 273 276 279 281
292 288 286 282 275 267 261 261 262 263 265 269 273 277 277 284 289 292 290 280 264 255 247 244 242 241 243 245 248 251 255 256 257 259 262 264 266 269 271 273 275 277 279 281
293 290 283 278 276 271 264 266 269 270 270 272 276 278 279 281 285 289 281 271 259 254 244 243 246 247 246 249 252 254 254 255 257 260 262 265 267 269 271 274 276 278 280 282
294 288 279 277 278 274 271 271 275 275 273 274 277 279 282 282 283 282 274 268 267 264 255 252 252 250 247 249 253 254 257 259 261 264 265 267 269 270 272 274 275 278 280 281
295 287 284 281 281 284 280 279 279 280 285 282 280 280 280 280 279 275 269 268 267 262 260 258 254 251 251 254 255 257 259 261 264 265 266 267 269 272 274 275 276 278 280 282
280 284 290 289 293 292 300 299 296 296 294 290 287 286 286 280 275 269 264 259 261 257 252 253 254 255 258 260 259 260 262 263 266 267 268 270 272 273 275 277 278 280 282 284
261 277 306 317 315 313 309 306 304 302 302 302 298 294 292 289 281 269 263 263 266 265 259 256 256 258 261 262 262 264 266 267 269 270 271 272 274 276 277 278 280 281 283 285
248 281 328 338 333 332 328 323 322 318 317 316 311 306 305 300 290 279 271 267 267 263 260 259 260 260 262 263 264 267 269 271 272 273 274 275 275 276 277 279 281 282 283 284
242 347 1 3 355 354 352 348 342 339 337 334 330 325 318 310 305 297 287 277 269 263 261 264 264 264 265 266 269 271 273 275 275 276 276 276 277 278 278 280 281 282 283 285
136 65 40 27 17 7 6 5 360 355 353 353 352 347 335 320 314 307 297 284 272 263 265 270 271 270 270 272 273 274 276 276 277 278 279 279 280 280 280 280 281 283 284 285
106 71 51 39 30 23 19 17 14 8 6 6 5 1 353 336 324 317 309 296 281 275 277 276 275 276 276 275 275 277 278 279 279 280 280 280 281 282 282 281 281 281 281 283
101 77 59 47 38 32 28 25 24 21 18 14 11 7 1 352 343 337 331 323 305 291 286 281 279 279 280 280 279 281 281 282 281 281 282 283 283 283 283 281 280 280 280 281
95 76 61 52 45 40 36 34 32 28 25 21 17 13 9 5 359 355 350 341 328 313 302 293 288 285 283 283 283 284 284 284 284 286 287 287 286 286 285 282 280 279 279 278
92 75 61 53 46 43 43 41 38 35 31 27 23 21 19 17 13 6 359 352 344 333 320 304 298 296 293 291 290 290 288 287 289 291 292 292 292 292 289 286 282 279 276 276
Height
5771 5770 5768 5766 5766 5765 5765 5765 5766 5766 5766 5766 5767 5770 5772 5774 5776 5780 5784 5789 5794 5801 5807 5811 5815 5818 5821 5823 5825 5826 5826 5827 5829 5831 5832 5834 5835 5837 5838 5840 5841 5842 5843 5845
5767 5765 5764 5762 5762 5761 5761 5761 5762 5762 5761 5762 5763 5765 5767 5769 5771 5774 5778 5782 5787 5793 5799 5804 5809 5813 5816 5818 5820 5821 5821 5822 5824 5825 5826 5827 5829 5830 5832 5834 5835 5836 5837 5839
5763 5762 5760 5759 5758 5757 5757 5758 5758 5758 5758 5758 5760 5762 5763 5765 5767 5769 5772 5776 5781 5786 5792 5798 5803 5807 5810 5813 5815 5816 5816 5817 5818 5819 5820 5821 5822 5823 5825 5828 5829 5829 5831 5832
5760 5758 5757 5755 5755 5754 5754 5754 5754 5754 5755 5756 5757 5758 5760 5761 5762 5765 5767 5771 5775 5780 5785 5791 5796 5800 5803 5807 5809 5811 5811 5812 5812 5812 5813 5814 5815 5817 5819 5821 5822 5823 5824 5826
5757 5755 5753 5752 5751 5751 5751 5751 5751 5751 5752 5753 5754 5755 5757 5757 5759 5761 5763 5766 5770 5775 5779 5784 5789 5793 5797 5800 5803 5805 5806 5807 5806 5806 5807 5808 5809 5811 5812 5814 5815 5817 5817 5819
5753 5751 5749 5748 5748 5747 5747 5748 5748 5748 5749 5750 5751 5752 5753 5754 5756 5758 5759 5762 5765 5769 5773 5778 5782 5786 5790 5793 5796 5798 5800 5801 5800 5801 5803 5804 5804 5804 5806 5808 5809 5811 5812 5812
5750 5748 5746 5744 5744 5744 5744 5744 5745 5745 5746 5747 5748 5748 5750 5751 5752 5754 5756 5758 5761 5764 5768 5772 5776 5779 5783 5786 5789 5791 5793 5794 5795 5795 5797 5798 5799 5800 5801 5803 5804 5805 5805 5806
5746 5745 5743 5741 5740 5740 5740 5741 5742 5743 5743 5744 5745 5746 5748 5748 5749 5751 5753 5754 5757 5760 5763 5766 5770 5773 5777 5780 5783 5785 5786 5788 5789 5790 5791 5793 5794 5794 5796 5797 5798 5799 5799 5800
5742 5742 5740 5738 5737 5737 5737 5738 5739 5740 5741 5741 5742 5743 5745 5745 5747 5748 5749 5751 5753 5755 5758 5761 5764 5768 5771 5774 5777 5779 5780 5781 5783 5785 5786 5788 5789 5789 5791 5792 5792 5793 5794 5795
5739 5738 5737 5735 5734 5734 5735 5735 5737 5737 5738 5739 5739 5740 5742 5743 5743 5745 5745 5747 5749 5751 5753 5756 5759 5762 5765 5768 5770 5773 5774 5775 5776 5778 5780 5782 5782 5783 5785 5785 5786 5787 5788 5789
5737 5736 5735 5733 5732 5732 5733 5734 5734 5735 5736 5737 5737 5741 5740 5740 5740 5740 5741 5742 5744 5746 5749 5751 5753 5756 5759 5762 5764 5766 5768 5769 5770 5772 5773 5775 5776 5777 5779 5780 5780 5781 5782 5783
5734 5733 5732 5731 5731 5730 5731 5731 5732 5734 5735 5735 5736 5740 5737 5737 5737 5737 5737 5738 5739 5741 5744 5746 5748 5750 5753 5755 5758 5760 5761 5763 5764 5766 5767 5769 5770 5771 5772 5774 5774 5774 5775 5775
5733 5732 5730 5730 5731 5730 5729 5730 5731 5732 5732 5733 5733 5737 5734 5734 5734 5734 5734 5734 5735 5737 5739 5740 5742 5745 5747 5750 5751 5753 5755 5757 5758 5760 5761 5763 5764 5765 5766 5767 5767 5767 5767 5767
5731 5730 5729 5729 5728 5728 5728 5728 5729 5729 5730 5730 5731 5732 5732 5731 5731 5731 5730 5730 5731 5732 5734 5735 5737 5739 5741 5743 5745 5747 5749 5750 5752 5753 5755 5756 5757 5758 5759 5759 5760 5760 5760 5759
5729 5728 5727 5727 5726 5726 5726 5726 5727 5727 5727 5728 5728 5728 5728 5728 5728 5727 5727 5727 5727 5728 5729 5730 5732 5734 5736 5737 5739 5741 5742 5744 5746 5747 5748 5749 5750 5751 5751 5751 5752 5752 5751 5751
5728 5727 5726 5726 5725 5725 5725 5725 5725 5724 5724 5724 5724 5724 5724 5724 5724 5723 5723 5723 5723 5724 5725 5726 5727 5729 5730 5732 5733 5735 5736 5737 5739 5740 5741 5742 5743 5743 5743 5743 5743 5743 5743 5742
5726 5726 5725 5725 5724 5724 5724 5723 5722 5722 5721 5721 5721 5721 5720 5719 5719 5719 5719 5719 5720 5720 5721 5721 5722 5724 5725 5726 5728 5729 5730 5731 5732 5733 5734 5734 5735 5736 5736 5736 5736 5735 5735 5734
5726 5725 5724 5723 5724 5723 5725 5721 5721 5720 5719 5718 5717 5716 5716 5716 5716 5715 5716 5716 5716 5716 5717 5718 5718 5719 5720 5721 5722 5723 5724 5725 5726 5726 5727 5727 5727 5728 5728 5728 5728 5727 5726 5726
5725 5725 5724 5723 5722 5722 5721 5720 5718 5718 5717 5715 5714 5713 5712 5712 5711 5711 5712 5712 5712 5712 5713 5713 5714 5715 5715 5716 5716 5717 5718 5718 5719 5719 5720 5720 5720 5720 5720 5720 5720 5720 5719 5718
5725 5724 5724 5723 5722 5721 5721 5719 5717 5717 5715 5713 5711 5710 5709 5709 5709 5709 5708 5708 5708 5708 5709 5709 5709 5710 5710 5711 5711 5712 5712 5713 5713 5713 5714 5714 5714 5714 5714 5713 5713 5712 5712 5711
5725 5724 5724 5723 5721 5721 5720 5717 5716 5716 5715 5711 5709 5708 5707 5706 5706 5706 5705 5704 5705 5704 5705 5705 5705 5706 5706 5706 5706 5707 5707 5707 5707 5707 5707 5707 5707 5707 5707 5706 5706 5705 5705 5704
5725 5724 5724 5723 5722 5723 5719 5716 5715 5714 5711 5709 5707 5706 5705 5704 5703 5702 5702 5701 5701 5701 5701 5701 5702 5702 5702 5702 5702 5702 5702 5702 5702 5702 5702 5702 5701 5701 5700 5700 5700 5699 5699 5699
5725 5725 5724 5724 5724 5721 5718 5716 5715 5712 5710 5708 5706 5705 5703 5702 5702 5701 5700 5699 5699 5699 5698 5698 5698 5698 5698 5698 5698 5698 5698 5697 5697 5697 5697 5696 5696 5695 5695 5694 5694 5694 5693 5693
5726 5725 5725 5723 5722 5720 5718 5716 5714 5712 5710 5708 5706 5705 5703 5702 5701 5699 5698 5698 5697 5696 5696 5695 5695 5695 5695 5694 5694 5694 5693 5693 5693 5692 5692 5691 5691 5690 5689 5689 5688 5688 5688 5688
5726 5726 5725 5724 5723 5721 5719 5717 5715 5712 5710 5708 5706 5704 5703 5701 5700 5698 5697 5696 5695 5694 5693 5693 5692 5692 5691 5691 5690 5690 5689 5689 5688 5688 5687 5686 5686 5685 5684 5683 5683 5683 5683 5684
5727 5727 5726 5725 5724 5722 5720 5718 5716 5714 5711 5709 5707 5705 5703 5701 5700 5698 5697 5695 5694 5693 5691 5690 5690 5689 5688 5688 5687 5686 5685 5685 5684 5683 5682 5681 5681 5680 5679 5679 5679 5679 5679 5679